Regional Weather Roundup
Issued by NWS

Home | Current Version | Previous Version | Text Only | Print | Product List | Glossary On
Versions: 1 2 3 4 5 6 7 8 9 10 11 12 13 14 15 16 17 18 19 20 21 22 23 24 25 26 27 28 29 30 31 32 33 34 35 36 37 38 39 40 41 42 43 44 45 46 47 48 49 50
000
ASUS43 KLSX 310159
RWRMO

WEATHER SUMMARY FOR MISSOURI
NATIONAL WEATHER SERVICE SPRINGFIELD MO
900 PM CDT MON MAR 30 2015

NOTE: "FAIR" INDICATES FEW OR NO CLOUDS BELOW 12,000 FEET WITH NO
       SIGNIFICANT WEATHER AND/OR OBSTRUCTIONS TO VISIBILITY.
       CURRENT SKY AND/OR WEATHER CONDITIONS ARE NOT AVAILABLE FOR
       CHILLICOTHE AND FARMINGTON.

MOZ001>031-035>038-043-044-053-054-310300-
...NORTHERN AND WESTERN MISSOURI...

CITY           SKY/WX    TMP DP  RH WIND       PRES   REMARKS
KANSAS CTY INT CLEAR     58  33  39 S12       29.95S
KANSAS C DTWN  CLEAR     62  32  32 S7        29.95S
LEE`S SUMMIT   CLEAR     62  33  33 S9        29.98R
ST JOSEPH      PTCLDY    59  33  37 S7        29.93R
CHILLICOTHE      N/A     58  36  43 S6        29.95S
KIRKSVILLE     CLEAR     60  34  37 SW9       29.94R

$$
MOZ066>068-077>081-088>096-101>105-310300-
...SOUTHWEST MISSOURI...

CITY           SKY/WX    TMP DP  RH WIND       PRES   REMARKS
SPRINGFIELD    CLEAR     55  36  48 S7        30.02R
JOPLIN         CLEAR     62  35  36 S3        30.03R

$$
MOZ032>034-039>042-045>050-055>058-069>072-310300-
...CENTRAL MISSOURI...

CITY           SKY/WX    TMP DP  RH WIND       PRES   REMARKS
COLUMBIA       PTCLDY    60  28  29 SW8       30.00R
JEFFERSON CITY PTCLDY    62  30  29 CALM      29.99R
ROLLA          FAIR      55  30  38 S8        30.00R
SEDALIA        PTCLDY    62  33  33 W7        30.01R
OSAGE BEACH    CLEAR     61  28  29 SW3       30.01R

$$
MOZ051-052-059>065-310300-
...EAST CENTRAL MISSOURI...

CITY           SKY/WX    TMP DP  RH WIND       PRES   REMARKS
ST LOUIS INTL  PTCLDY    63  28  26 S3        29.99R
SPIRIT OF STL  PTCLDY    53  34  48 CALM      29.98R
ST CHARLES     PTCLDY    57  31  37 S7        29.97R

$$
MOZ072>076-082>087-097>100-106>115-310300-
...SOUTH CENTRAL AND SOUTHEAST MISSOURI...

CITY           SKY/WX    TMP DP  RH WIND       PRES   REMARKS
CAPE GIRARDEAU CLEAR     55  41  59 S5        30.07R
FARMINGTON     CLEAR     57  34  41 S9        30.06S
POPLAR BLUFF   CLEAR     58  40  51 S6        30.06S
WEST PLAINS    CLEAR     60  33  36 S6        30.06R

$$


USA.gov is the U.S. government's official web portal to all federal, state and local government web resources and services.